| time (UTC) | temp F | wind direction | speed MPH | gust MPH | rain 1hr in | rain 24hr in | rain mn in | humidity % | barometer mb |
| 20260507014843 | 63 | 69 | 3.0 | 5.0 | 0.00 | 0.00 | 0.00 | 10 | 1006.4 |
| 20260507014339 | 64 | 88 | 3.0 | 5.0 | 0.00 | 0.00 | 0.00 | 10 | 1006.4 |
| 20260507013836 | 64 | 34 | 4.0 | 5.0 | 0.00 | 0.00 | 0.00 | 10 | 1006.6 |
| 20260507013333 | 64 | 95 | 7.0 | 8.0 | 0.00 | 0.00 | 0.00 | 10 | 1006.4 |
| 20260507012831 | 65 | 185 | 1.0 | 1.0 | 0.00 | 0.00 | 0.00 | 10 | 1006.3 |
| 20260507012326 | 65 | 119 | 0.0 | 1.0 | 0.00 | 0.00 | 0.00 | 10 | 1006.3 |
| 20260507011823 | 66 | 155 | 3.0 | 3.0 | 0.00 | 0.00 | 0.00 | 10 | 1006.3 |
| 20260507011320 | 65 | 92 | 3.0 | 3.0 | 0.00 | 0.00 | 0.00 | 10 | 1006.3 |
| 20260507010820 | 65 | 170 | 2.0 | 2.0 | 0.00 | 0.00 | 0.00 | 10 | 1006.2 |
| 20260507010315 | 65 | 141 | 0.0 | 1.0 | 0.00 | 0.00 | 0.00 | 10 | 1006.2 |
| 20260507005813 | 65 | 287 | 4.0 | 5.0 | 0.00 | 0.00 | 0.00 | 10 | 1006.2 |
| 20260507005310 | 65 | 54 | 5.0 | 7.0 | 0.00 | 0.00 | 0.00 | 10 | 1006.2 |
| 20260507004807 | 65 | 33 | 5.0 | 7.0 | 0.00 | 0.00 | 0.00 | 10 | 1006.1 |
| 20260507004304 | 65 | 112 | 3.0 | 5.0 | 0.00 | 0.00 | 0.00 | 10 | 1006.1 |
| 20260507003800 | 65 | 94 | 3.0 | 3.0 | 0.00 | 0.00 | 0.00 | 10 | 1006.2 |
| 20260507003256 | 65 | 68 | 5.0 | 7.0 | 0.00 | 0.00 | 0.00 | 10 | 1006.0 |
| 20260507002752 | 65 | 313 | 4.0 | 5.0 | 0.00 | 0.00 | 0.00 | 10 | 1006.1 |
| 20260507002248 | 65 | 23 | 5.0 | 6.0 | 0.00 | 0.00 | 0.00 | 10 | 1006.1 |
| 20260507001745 | 65 | 205 | 2.0 | 3.0 | 0.00 | 0.00 | 0.00 | 10 | 1006.0 |
| 20260507001242 | 66 | 64 | 4.0 | 6.0 | 0.00 | 0.00 | 0.00 | 10 | 1005.9 |
| 20260507000738 | 66 | 69 | 2.0 | 2.0 | 0.00 | 0.00 | 0.00 | 10 | 1005.9 |
| 20260507000234 | 66 | 180 | 3.0 | 3.0 | 0.00 | 0.00 | 0.00 | 10 | 1005.7 |
| 20260506235731 | 66 | 33 | 8.0 | 10.0 | 0.00 | 0.00 | 0.00 | 10 | 1005.7 |
| 20260506235227 | 66 | 30 | 7.0 | 8.0 | 0.00 | 0.00 | 0.00 | 10 | 1005.5 |
| 20260506234724 | 67 | 3 | 11.0 | 13.0 | 0.00 | 0.00 | 0.00 | 10 | 1005.5 |
| 20260506234221 | 67 | 42 | 6.0 | 7.0 | 0.00 | 0.00 | 0.00 | 10 | 1005.2 |
| 20260506233719 | 68 | 77 | 6.0 | 8.0 | 0.00 | 0.00 | 0.00 | 10 | 1005.3 |
| 20260506233215 | 68 | 52 | 6.0 | 7.0 | 0.00 | 0.00 | 0.00 | 10 | 1005.1 |
| 20260506232711 | 68 | 80 | 4.0 | 5.0 | 0.00 | 0.00 | 0.00 | 10 | 1005.4 |
| 20260506232206 | 68 | 179 | 2.0 | 2.0 | 0.00 | 0.00 | 0.00 | 10 | 1005.4 |
| 20260506231704 | 68 | 171 | 2.0 | 2.0 | 0.00 | 0.00 | 0.00 | 10 | 1005.2 |
| 20260506231203 | 68 | 183 | 1.0 | 1.0 | 0.00 | 0.00 | 0.00 | 10 | 1005.3 |
| 20260506230658 | 68 | 182 | 3.0 | 3.0 | 0.00 | 0.00 | 0.00 | 10 | 1005.4 |
| 20260506230155 | 68 | 34 | 5.0 | 6.0 | 0.00 | 0.00 | 0.00 | 10 | 1005.2 |
| 20260506225652 | 68 | 67 | 4.0 | 6.0 | 0.00 | 0.00 | 0.00 | 10 | 1005.1 |
| 20260506225149 | 68 | 101 | 6.0 | 8.0 | 0.00 | 0.00 | 0.00 | 10 | 1005.2 |
| 20260506224645 | 68 | 73 | 3.0 | 3.0 | 0.00 | 0.00 | 0.00 | 10 | 1005.3 |
| 20260506224142 | 68 | 46 | 3.0 | 5.0 | 0.00 | 0.00 | 0.00 | 10 | 1005.3 |
| 20260506223639 | 68 | 46 | 4.0 | 6.0 | 0.00 | 0.00 | 0.00 | 10 | 1005.4 |
| 20260506223134 | 68 | 154 | 3.0 | 5.0 | 0.00 | 0.00 | 0.00 | 10 | 1005.3 |
| 20260506222632 | 68 | 91 | 7.0 | 9.0 | 0.00 | 0.00 | 0.00 | 10 | 1005.3 |
| 20260506222128 | 68 | 144 | 6.0 | 7.0 | 0.00 | 0.00 | 0.00 | 10 | 1005.3 |
| 20260506221626 | 68 | 58 | 7.0 | 8.0 | 0.00 | 0.00 | 0.00 | 10 | 1005.4 |
| 20260506221123 | 69 | 76 | 3.0 | 5.0 | 0.00 | 0.00 | 0.00 | 10 | 1005.3 |
| 20260506220620 | 69 | 98 | 11.0 | 11.0 | 0.00 | 0.00 | 0.00 | 10 | 1005.3 |
| 20260506220115 | 69 | 111 | 9.0 | 10.0 | 0.00 | 0.00 | 0.00 | 10 | 1005.5 |
| 20260506215612 | 70 | 110 | 2.0 | 3.0 | 0.00 | 0.00 | 0.00 | 10 | 1005.9 |
| 20260506215107 | 71 | 26 | 4.0 | 5.0 | 0.00 | 0.00 | 0.00 | 10 | 1005.9 |
| 20260506214604 | 71 | 257 | 6.0 | 8.0 | 0.00 | 0.00 | 0.00 | 10 | 1005.8 |
| 20260506214102 | 72 | 231 | 3.0 | 5.0 | 0.00 | 0.00 | 0.00 | 10 | 1005.9 |
| 20260506213600 | 70 | 191 | 3.0 | 5.0 | 0.00 | 0.00 | 0.00 | 10 | 1005.4 |
| 20260506213057 | 71 | 272 | 14.0 | 18.0 | 0.00 | 0.00 | 0.00 | 10 | 1005.7 |
| 20260506212554 | 71 | 218 | 9.0 | 10.0 | 0.00 | 0.00 | 0.00 | 10 | 1005.5 |
| 20260506212048 | 71 | 214 | 11.0 | 13.0 | 0.00 | 0.00 | 0.00 | 10 | 1005.7 |
| 20260506211545 | 72 | 195 | 8.0 | 11.0 | 0.00 | 0.00 | 0.00 | 10 | 1005.7 |
| 20260506211042 | 72 | 287 | 10.0 | 11.0 | 0.00 | 0.00 | 0.00 | 10 | 1005.7 |
| 20260506210538 | 71 | 179 | 1.0 | 2.0 | 0.00 | 0.00 | 0.00 | 10 | 1005.8 |
| 20260506210035 | 71 | 286 | 9.0 | 10.0 | 0.00 | 0.00 | 0.00 | 10 | 1005.8 |
| 20260506205532 | 71 | 172 | 6.0 | 7.0 | 0.00 | 0.00 | 0.00 | 10 | 1005.9 |
| 20260506205027 | 70 | 195 | 2.0 | 2.0 | 0.00 | 0.00 | 0.00 | 10 | 1006.1 |
| 20260506204525 | 70 | 165 | 6.0 | 8.0 | 0.00 | 0.00 | 0.00 | 10 | 1006.0 |
| 20260506204022 | 70 | 182 | 2.0 | 3.0 | 0.00 | 0.00 | 0.00 | 10 | 1006.0 |
| 20260506203520 | 70 | 265 | 8.0 | 9.0 | 0.00 | 0.00 | 0.00 | 10 | 1005.9 |
| 20260506203016 | 70 | 230 | 9.0 | 13.0 | 0.00 | 0.00 | 0.00 | 10 | 1006.1 |
| 20260506202514 | 70 | 178 | 3.0 | 5.0 | 0.00 | 0.00 | 0.00 | 10 | 1006.1 |
| 20260506202010 | 70 | 194 | 5.0 | 7.0 | 0.00 | 0.00 | 0.00 | 10 | 1006.1 |
| 20260506201508 | 69 | 246 | 7.0 | 8.0 | 0.00 | 0.00 | 0.00 | 10 | 1006.0 |
| 20260506201004 | 69 | 264 | 4.0 | 5.0 | 0.00 | 0.00 | 0.00 | 10 | 1006.2 |
| 20260506200501 | 71 | 232 | 6.0 | 7.0 | 0.00 | 0.00 | 0.00 | 10 | 1006.2 |
| 20260506195957 | 71 | 229 | 6.0 | 7.0 | 0.00 | 0.00 | 0.00 | 10 | 1006.3 |
| 20260506195455 | 70 | 226 | 5.0 | 5.0 | 0.00 | 0.00 | 0.00 | 10 | 1006.2 |
| 20260506194950 | 69 | 210 | 4.0 | 5.0 | 0.00 | 0.00 | 0.00 | 10 | 1006.6 |
| 20260506194448 | 69 | 290 | 6.0 | 9.0 | 0.00 | 0.00 | 0.00 | 10 | 1006.7 |
| 20260506193944 | 69 | 285 | 9.0 | 10.0 | 0.00 | 0.00 | 0.00 | 10 | 1006.7 |
| 20260506193442 | 70 | 195 | 9.0 | 9.0 | 0.00 | 0.00 | 0.00 | 10 | 1006.2 |
| 20260506192938 | 70 | 189 | 3.0 | 3.0 | 0.00 | 0.00 | 0.00 | 10 | 1006.4 |
| 20260506192436 | 69 | 153 | 3.0 | 3.0 | 0.00 | 0.00 | 0.00 | 10 | 1006.4 |
| 20260506191932 | 69 | 159 | 0.0 | 0.0 | 0.00 | 0.00 | 0.00 | 10 | 1006.7 |
| 20260506191429 | 68 | 208 | 2.0 | 3.0 | 0.00 | 0.00 | 0.00 | 10 | 1006.7 |
| 20260506190925 | 69 | 237 | 4.0 | 5.0 | 0.00 | 0.00 | 0.00 | 10 | 1006.9 |
| 20260506190422 | 67 | 102 | 4.0 | 5.0 | 0.00 | 0.00 | 0.00 | 10 | 1006.8 |
| 20260506185919 | 67 | 82 | 6.0 | 8.0 | 0.00 | 0.00 | 0.00 | 10 | 1006.9 |
| 20260506185416 | 67 | 179 | 0.0 | 1.0 | 0.00 | 0.00 | 0.00 | 10 | 1006.9 |
| 20260506184913 | 68 | 200 | 8.0 | 10.0 | 0.00 | 0.00 | 0.00 | 10 | 1007.2 |
| 20260506184410 | 68 | 215 | 14.0 | 16.0 | 0.00 | 0.00 | 0.00 | 10 | 1007.3 |
| 20260506183907 | 64 | 196 | 4.0 | 5.0 | 0.00 | 0.00 | 0.00 | 10 | 1007.5 |
| 20260506183403 | 66 | 159 | 7.0 | 8.0 | 0.00 | 0.00 | 0.00 | 10 | 1007.5 |
| 20260506182900 | 66 | 191 | 7.0 | 9.0 | 0.00 | 0.00 | 0.00 | 10 | 1007.3 |
| 20260506182357 | 65 | 211 | 6.0 | 10.0 | 0.00 | 0.00 | 0.00 | 10 | 1007.5 |
| 20260506181854 | 64 | 188 | 6.0 | 10.0 | 0.00 | 0.00 | 0.00 | 10 | 1007.1 |
| 20260506181352 | 64 | 195 | 7.0 | 9.0 | 0.00 | 0.00 | 0.00 | 10 | 1007.6 |
| 20260506180848 | 64 | 206 | 7.0 | 10.0 | 0.00 | 0.00 | 0.00 | 10 | 1007.6 |
| 20260506180339 | 63 | 201 | 9.0 | 15.0 | 0.00 | 0.00 | 0.00 | 10 | 1007.7 |
| 20260506175835 | 63 | 179 | 11.0 | 15.0 | 0.00 | 0.00 | 0.00 | 10 | 1007.7 |
| 20260506175332 | 62 | 174 | 9.0 | 13.0 | 0.00 | 0.00 | 0.00 | 10 | 1007.8 |
| 20260506174829 | 62 | 196 | 13.0 | 16.0 | 0.00 | 0.00 | 0.00 | 10 | 1007.6 |
| 20260506174327 | 63 | 186 | 10.0 | 14.0 | 0.00 | 0.00 | 0.00 | 10 | 1008.1 |
| 20260506173824 | 63 | 178 | 11.0 | 13.0 | 0.00 | 0.00 | 0.00 | 10 | 1008.1 |
| 20260506173321 | 64 | 213 | 10.0 | 11.0 | 0.00 | 0.00 | 0.00 | 10 | 1008.1 |
| 20260506172818 | 63 | 197 | 9.0 | 10.0 | 0.00 | 0.00 | 0.00 | 10 | 1008.2 |
| 20260506172315 | 63 | 222 | 12.0 | 16.0 | 0.00 | 0.00 | 0.00 | 10 | 1008.1 |
| 20260506171812 | 62 | 210 | 10.0 | 14.0 | 0.00 | 0.00 | 0.00 | 10 | 1008.5 |
| 20260506171309 | 62 | 208 | 12.0 | 14.0 | 0.00 | 0.00 | 0.00 | 10 | 1008.3 |
| 20260506170807 | 62 | 203 | 13.0 | 16.0 | 0.00 | 0.00 | 0.00 | 10 | 1008.6 |
| 20260506170303 | 62 | 211 | 14.0 | 20.0 | 0.00 | 0.00 | 0.00 | 10 | 1008.6 |
| 20260506165802 | 61 | 214 | 15.0 | 20.0 | 0.00 | 0.00 | 0.00 | 10 | 1008.7 |
| 20260506165258 | 61 | 177 | 12.0 | 14.0 | 0.00 | 0.00 | 0.00 | 10 | 1008.8 |
| 20260506164755 | 60 | 192 | 9.0 | 11.0 | 0.00 | 0.00 | 0.00 | 10 | 1009.0 |
| 20260506164252 | 60 | 222 | 13.0 | 16.0 | 0.00 | 0.00 | 0.00 | 10 | 1009.0 |
| 20260506163749 | 59 | 149 | 12.0 | 17.0 | 0.00 | 0.00 | 0.00 | 10 | 1009.1 |
| 20260506163244 | 58 | 217 | 13.0 | 16.0 | 0.00 | 0.00 | 0.00 | 10 | 1009.0 |
| 20260506162740 | 58 | 222 | 13.0 | 15.0 | 0.00 | 0.00 | 0.00 | 10 | 1009.4 |
| 20260506162238 | 58 | 215 | 9.0 | 10.0 | 0.00 | 0.00 | 0.00 | 10 | 1009.1 |
| 20260506161735 | 58 | 223 | 13.0 | 15.0 | 0.00 | 0.00 | 0.00 | 10 | 1009.2 |
| 20260506161232 | 57 | 297 | 9.0 | 11.0 | 0.00 | 0.00 | 0.00 | 10 | 1009.4 |
| 20260506160730 | 56 | 245 | 13.0 | 15.0 | 0.00 | 0.00 | 0.00 | 10 | 1009.5 |
| 20260506160226 | 55 | 225 | 11.0 | 16.0 | 0.00 | 0.00 | 0.00 | 10 | 1009.5 |
| 20260506155724 | 55 | 202 | 9.0 | 11.0 | 0.00 | 0.00 | 0.00 | 10 | 1009.6 |
| 20260506155221 | 55 | 220 | 10.0 | 15.0 | 0.00 | 0.00 | 0.00 | 10 | 1009.5 |
| 20260506153329 | 53 | 201 | 11.0 | 13.0 | 0.00 | 0.00 | 0.00 | 10 | 1009.8 |
| 20260506152826 | 52 | 241 | 8.0 | 11.0 | 0.00 | 0.00 | 0.00 | 10 | 1010.0 |
| 20260506152323 | 52 | 154 | 18.0 | 21.0 | 0.00 | 0.00 | 0.00 | 10 | 1009.8 |
| 20260506151822 | 51 | 199 | 12.0 | 15.0 | 0.00 | 0.00 | 0.00 | 10 | 1010.0 |
| 20260506151318 | 51 | 218 | 7.0 | 9.0 | 0.00 | 0.00 | 0.00 | 10 | 1010.0 |
| 20260506150815 | 51 | 238 | 11.0 | 15.0 | 0.00 | 0.00 | 0.00 | 10 | 1010.1 |
| 20260506150312 | 50 | 211 | 19.0 | 22.0 | 0.00 | 0.00 | 0.00 | 10 | 1010.5 |
| 20260506145809 | 50 | 218 | 13.0 | 20.0 | 0.00 | 0.00 | 0.00 | 10 | 1010.3 |
| 20260506145306 | 49 | 214 | 11.0 | 13.0 | 0.00 | 0.00 | 0.00 | 10 | 1010.3 |
| 20260506144803 | 48 | 242 | 13.0 | 16.0 | 0.00 | 0.00 | 0.00 | 10 | 1010.6 |
| 20260506144259 | 47 | 241 | 5.0 | 10.0 | 0.00 | 0.00 | 0.00 | 10 | 1010.7 |
| 20260506143757 | 43 | 202 | 3.0 | 6.0 | 0.00 | 0.00 | 0.00 | 10 | 1010.8 |
| 20260506143254 | 41 | 184 | 1.0 | 2.0 | 0.00 | 0.00 | 0.00 | 10 | 1010.9 |
| 20260506142753 | 40 | 226 | 4.0 | 5.0 | 0.00 | 0.00 | 0.00 | 10 | 1010.6 |
| 20260506142250 | 39 | 192 | 2.0 | 2.0 | 0.00 | 0.00 | 0.00 | 10 | 1010.7 |
| 20260506141748 | 39 | 157 | 4.0 | 5.0 | 0.00 | 0.00 | 0.00 | 10 | 1010.9 |
| 20260506141247 | 37 | 232 | 4.0 | 6.0 | 0.00 | 0.00 | 0.00 | 10 | 1011.0 |
| 20260506140744 | 36 | 198 | 3.0 | 3.0 | 0.00 | 0.00 | 0.00 | 10 | 1011.2 |
| 20260506140240 | 35 | 224 | 3.0 | 3.0 | 0.00 | 0.00 | 0.00 | 10 | 1011.3 |
| 20260506135737 | 34 | 258 | 5.0 | 6.0 | 0.00 | 0.00 | 0.00 | 10 | 1011.2 |
| 20260506135233 | 33 | 289 | 4.0 | 5.0 | 0.00 | 0.00 | 0.00 | 10 | 1011.3 |
| 20260506134731 | 33 | 276 | 5.0 | 7.0 | 0.00 | 0.00 | 0.00 | 10 | 1011.5 |
| 20260506134227 | 32 | 175 | 3.0 | 5.0 | 0.00 | 0.00 | 0.00 | 10 | 1011.5 |
| 20260506133725 | 31 | 214 | 3.0 | 3.0 | 0.00 | 0.00 | 0.00 | 10 | 1011.5 |
| 20260506133221 | 30 | 348 | 4.0 | 5.0 | 0.00 | 0.00 | 0.00 | 10 | 1011.5 |
| 20260506132718 | 30 | 208 | 5.0 | 6.0 | 0.00 | 0.00 | 0.00 | 10 | 1011.7 |
| 20260506132215 | 30 | 159 | 3.0 | 3.0 | 0.00 | 0.00 | 0.00 | 10 | 1011.4 |
| 20260506131713 | 29 | 198 | 4.0 | 5.0 | 0.00 | 0.00 | 0.00 | 10 | 1011.4 |
| 20260506131208 | 28 | 223 | 3.0 | 3.0 | 0.00 | 0.00 | 0.00 | 10 | 1011.6 |
| 20260506130705 | 28 | 181 | 2.0 | 2.0 | 0.00 | 0.00 | 0.00 | 10 | 1011.4 |
| 20260506130202 | 28 | 180 | 4.0 | 5.0 | 0.00 | 0.00 | 0.00 | 10 | 1011.5 |
| 20260506125701 | 28 | 319 | 4.0 | 7.0 | 0.00 | 0.00 | 0.00 | 10 | 1011.5 |
| 20260506125158 | 27 | 180 | 2.0 | 3.0 | 0.00 | 0.00 | 0.00 | 10 | 1011.3 |
| 20260506124656 | 27 | 269 | 4.0 | 6.0 | 0.00 | 0.00 | 0.00 | 10 | 1011.4 |
| 20260506124154 | 27 | 253 | 6.0 | 7.0 | 0.00 | 0.00 | 0.00 | 10 | 1011.6 |
| 20260506123651 | 26 | 189 | 4.0 | 5.0 | 0.00 | 0.00 | 0.00 | 10 | 1011.6 |
| 20260506123150 | 26 | 275 | 3.0 | 3.0 | 0.00 | 0.00 | 0.00 | 10 | 1011.5 |
| 20260506122646 | 26 | 258 | 3.0 | 5.0 | 0.00 | 0.00 | 0.00 | 10 | 1011.4 |
| 20260506122144 | 26 | 170 | 3.0 | 3.0 | 0.00 | 0.00 | 0.00 | 10 | 1011.6 |
| 20260506121641 | 26 | 201 | 3.0 | 3.0 | 0.00 | 0.00 | 0.00 | 10 | 1011.5 |
| 20260506121137 | 26 | 233 | 3.0 | 5.0 | 0.00 | 0.00 | 0.00 | 10 | 1011.6 |
| 20260506120635 | 26 | 262 | 4.0 | 5.0 | 0.00 | 0.00 | 0.00 | 10 | 1011.7 |
| 20260506120132 | 25 | 245 | 3.0 | 3.0 | 0.00 | 0.00 | 0.00 | 10 | 1011.9 |
| 20260506115631 | 25 | 258 | 4.0 | 5.0 | 0.00 | 0.00 | 0.00 | 10 | 1011.7 |
| 20260506115129 | 26 | 264 | 4.0 | 6.0 | 0.00 | 0.00 | 0.00 | 10 | 1011.6 |
| 20260506114626 | 26 | 191 | 1.0 | 2.0 | 0.00 | 0.00 | 0.00 | 10 | 1011.8 |
| 20260506114124 | 26 | 174 | 2.0 | 2.0 | 0.00 | 0.00 | 0.00 | 10 | 1012.1 |
| 20260506113622 | 26 | 246 | 4.0 | 6.0 | 0.00 | 0.00 | 0.00 | 10 | 1012.1 |
| 20260506113119 | 26 | 330 | 2.0 | 5.0 | 0.00 | 0.00 | 0.00 | 10 | 1011.9 |
| 20260506112615 | 26 | 186 | 3.0 | 3.0 | 0.00 | 0.00 | 0.00 | 10 | 1012.2 |
| 20260506112113 | 26 | 239 | 3.0 | 3.0 | 0.00 | 0.00 | 0.00 | 10 | 1012.1 |
| 20260506111610 | 26 | 198 | 2.0 | 2.0 | 0.00 | 0.00 | 0.00 | 10 | 1012.2 |
| 20260506111108 | 26 | 178 | 3.0 | 3.0 | 0.00 | 0.00 | 0.00 | 10 | 1012.2 |
| 20260506110605 | 26 | 177 | 3.0 | 3.0 | 0.00 | 0.00 | 0.00 | 10 | 1012.3 |
| 20260506105558 | 26 | 179 | 2.0 | 2.0 | 0.00 | 0.00 | 0.00 | 10 | 1012.4 |
| 20260506105055 | 26 | 200 | 3.0 | 3.0 | 0.00 | 0.00 | 0.00 | 10 | 1012.5 |
| 20260506104553 | 26 | 188 | 3.0 | 3.0 | 0.00 | 0.00 | 0.00 | 10 | 1012.3 |
| 20260506104051 | 27 | 208 | 3.0 | 3.0 | 0.00 | 0.00 | 0.00 | 10 | 1012.5 |
| 20260506103548 | 27 | 183 | 1.0 | 1.0 | 0.00 | 0.00 | 0.00 | 10 | 1012.4 |
| 20260506103044 | 27 | 175 | 1.0 | 1.0 | 0.00 | 0.00 | 0.00 | 10 | 1012.5 |
| 20260506102543 | 27 | 193 | 1.0 | 2.0 | 0.00 | 0.00 | 0.00 | 10 | 1012.5 |
| 20260506102040 | 28 | 173 | 1.0 | 1.0 | 0.00 | 0.00 | 0.00 | 10 | 1012.6 |
| 20260506101537 | 28 | 173 | 0.0 | 0.0 | 0.00 | 0.00 | 0.00 | 10 | 1012.7 |
| 20260506101034 | 28 | 176 | 0.0 | 0.0 | 0.00 | 0.00 | 0.00 | 10 | 1012.4 |
| 20260506100532 | 28 | 172 | 0.0 | 0.0 | 0.00 | 0.00 | 0.00 | 10 | 1013.0 |
| 20260506100030 | 28 | 152 | 0.0 | 0.0 | 0.00 | 0.00 | 0.00 | 10 | 1012.7 |
| 20260506095528 | 28 | 156 | 0.0 | 0.0 | 0.00 | 0.00 | 0.00 | 10 | 1012.8 |
| 20260506095024 | 28 | 176 | 2.0 | 2.0 | 0.00 | 0.00 | 0.00 | 10 | 1013.0 |
| 20260506094522 | 28 | 145 | 1.0 | 1.0 | 0.00 | 0.00 | 0.00 | 10 | 1013.0 |
| 20260506094020 | 28 | 148 | 1.0 | 1.0 | 0.00 | 0.00 | 0.00 | 10 | 1013.0 |
| 20260506093518 | 28 | 172 | 0.0 | 0.0 | 0.00 | 0.00 | 0.00 | 10 | 1013.2 |
| 20260506093015 | 29 | 165 | 2.0 | 2.0 | 0.00 | 0.00 | 0.00 | 10 | 1013.2 |
| 20260506092513 | 30 | 147 | 1.0 | 2.0 | 0.00 | 0.00 | 0.00 | 10 | 1013.2 |
| 20260506092009 | 30 | 164 | 1.0 | 1.0 | 0.00 | 0.00 | 0.00 | 10 | 1013.3 |
| 20260506091508 | 30 | 167 | 1.0 | 1.0 | 0.00 | 0.00 | 0.00 | 10 | 1013.6 |
| 20260506091005 | 30 | 157 | 0.0 | 0.0 | 0.00 | 0.00 | 0.00 | 10 | 1013.6 |
| 20260506090503 | 31 | 144 | 2.0 | 2.0 | 0.00 | 0.00 | 0.00 | 10 | 1013.6 |
| 20260506085958 | 31 | 166 | 0.0 | 0.0 | 0.00 | 0.00 | 0.00 | 10 | 1013.4 |
| 20260506085455 | 31 | 132 | 1.0 | 2.0 | 0.00 | 0.00 | 0.00 | 10 | 1013.4 |
| 20260506084951 | 31 | 147 | 1.0 | 2.0 | 0.00 | 0.00 | 0.00 | 10 | 1013.4 |
| 20260506084449 | 32 | 149 | 1.0 | 1.0 | 0.00 | 0.00 | 0.00 | 10 | 1013.5 |
| 20260506083945 | 32 | 129 | 1.0 | 2.0 | 0.00 | 0.00 | 0.00 | 10 | 1013.7 |
| 20260506083442 | 32 | 156 | 0.0 | 0.0 | 0.00 | 0.00 | 0.00 | 10 | 1013.7 |
| 20260506082939 | 32 | 160 | 0.0 | 0.0 | 0.00 | 0.00 | 0.00 | 10 | 1013.6 |
| 20260506082436 | 33 | 165 | 0.0 | 0.0 | 0.00 | 0.00 | 0.00 | 10 | 1013.9 |
| 20260506081932 | 33 | 172 | 0.0 | 0.0 | 0.00 | 0.00 | 0.00 | 10 | 1013.7 |
| 20260506081431 | 33 | 163 | 1.0 | 1.0 | 0.00 | 0.00 | 0.00 | 10 | 1014.0 |
| 20260506080927 | 34 | 158 | 1.0 | 1.0 | 0.00 | 0.00 | 0.00 | 10 | 1014.0 |
| 20260506080424 | 34 | 154 | 1.0 | 1.0 | 0.00 | 0.00 | 0.00 | 10 | 1014.0 |
| 20260506073408 | 35 | 93 | 2.0 | 3.0 | 0.00 | 0.00 | 0.00 | 10 | 1014.4 |
| 20260506072906 | 35 | 148 | 3.0 | 3.0 | 0.00 | 0.00 | 0.00 | 10 | 1014.4 |
| 20260506072403 | 36 | 165 | 1.0 | 2.0 | 0.00 | 0.00 | 0.00 | 10 | 1014.3 |
| 20260506071900 | 36 | 155 | 5.0 | 6.0 | 0.00 | 0.00 | 0.00 | 10 | 1014.6 |
| 20260506071359 | 36 | 93 | 1.0 | 2.0 | 0.00 | 0.00 | 0.00 | 10 | 1014.8 |
| 20260506070855 | 37 | 147 | 1.0 | 1.0 | 0.00 | 0.00 | 0.00 | 10 | 1014.6 |
| 20260506070352 | 36 | 128 | 3.0 | 3.0 | 0.00 | 0.00 | 0.00 | 10 | 1014.5 |
| 20260506041323 | 39 | 101 | 2.0 | 2.0 | 0.00 | 0.00 | 0.00 | 10 | 1015.8 |
| 20260506040820 | 39 | 101 | 2.0 | 2.0 | 0.00 | 0.00 | 0.00 | 10 | 1015.8 |
| 20260506040318 | 39 | 42 | 2.0 | 2.0 | 0.00 | 0.00 | 0.00 | 10 | 1016.0 |
| 20260506035814 | 39 | 130 | 1.0 | 1.0 | 0.00 | 0.00 | 0.00 | 10 | 1016.2 |
| 20260506035311 | 39 | 89 | 2.0 | 2.0 | 0.00 | 0.00 | 0.00 | 10 | 1016.0 |
| 20260506034808 | 39 | 132 | 0.0 | 1.0 | 0.00 | 0.00 | 0.00 | 10 | 1015.9 |
| 20260506034305 | 40 | 98 | 3.0 | 3.0 | 0.00 | 0.00 | 0.00 | 10 | 1016.3 |
| 20260506033802 | 40 | 130 | 0.0 | 1.0 | 0.00 | 0.00 | 0.00 | 10 | 1016.0 |
| 20260506033259 | 41 | 119 | 1.0 | 1.0 | 0.00 | 0.00 | 0.00 | 10 | 1016.1 |
| 20260506032756 | 41 | 92 | 2.0 | 3.0 | 0.00 | 0.00 | 0.00 | 10 | 1016.2 |
| 20260506032253 | 41 | 85 | 2.0 | 3.0 | 0.00 | 0.00 | 0.00 | 10 | 1016.0 |
| 20260506031749 | 42 | 86 | 2.0 | 2.0 | 0.00 | 0.00 | 0.00 | 10 | 1016.0 |
| 20260506031247 | 44 | 151 | 1.0 | 1.0 | 0.00 | 0.00 | 0.00 | 10 | 1015.9 |
| 20260506030745 | 44 | 153 | 1.0 | 1.0 | 0.00 | 0.00 | 0.00 | 10 | 1016.0 |
| 20260506030243 | 44 | 132 | 2.0 | 3.0 | 0.00 | 0.00 | 0.00 | 10 | 1016.2 |
| 20260506025739 | 45 | 135 | 1.0 | 1.0 | 0.00 | 0.00 | 0.00 | 10 | 1016.0 |
| 20260506025235 | 46 | 129 | 1.0 | 1.0 | 0.00 | 0.00 | 0.00 | 10 | 1015.8 |
| 20260506024733 | 46 | 74 | 2.0 | 3.0 | 0.00 | 0.00 | 0.00 | 10 | 1015.7 |
| 20260506024229 | 46 | 121 | 3.0 | 5.0 | 0.00 | 0.00 | 0.00 | 10 | 1015.7 |
| 20260506023725 | 47 | 88 | 3.0 | 3.0 | 0.00 | 0.00 | 0.00 | 10 | 1015.9 |
| 20260506023223 | 47 | 70 | 6.0 | 8.0 | 0.00 | 0.00 | 0.00 | 10 | 1015.7 |
| 20260506022719 | 48 | 100 | 2.0 | 5.0 | 0.00 | 0.00 | 0.00 | 10 | 1015.8 |
| 20260506022217 | 48 | 65 | 5.0 | 7.0 | 0.00 | 0.00 | 0.00 | 10 | 1015.8 |
| 20260506021715 | 48 | 118 | 2.0 | 3.0 | 0.00 | 0.00 | 0.00 | 10 | 1015.8 |
| 20260506021212 | 48 | 138 | 7.0 | 8.0 | 0.00 | 0.00 | 0.00 | 10 | 1015.8 |
| 20260506020708 | 48 | 102 | 5.0 | 7.0 | 0.00 | 0.00 | 0.00 | 10 | 1015.5 |
| 20260506020206 | 48 | 144 | 2.0 | 3.0 | 0.00 | 0.00 | 0.00 | 10 | 1015.7 |
| 20260506015704 | 49 | 103 | 4.0 | 6.0 | 0.00 | 0.00 | 0.00 | 10 | 1015.7 |
| 20260506015201 | 49 | 107 | 5.0 | 8.0 | 0.00 | 0.00 | 0.00 | 10 | 1015.8 |